User: anonymous   Login
Location: Unspecified
(0.0000°N, 0.0000°E)
Time: 02:36:26
(UTC+02:00)
Language:

ARIANE 5 R/B - Orbit

View from above orbital plane
View from above orbital plane
View from above satellite
View from above satellite

Ground track
Ground track

The orbit data is extracted from the following two-line orbital elements,

1 27387U 02009B   14297.00323814  .00000230  00000-0  93289-4 0  3053
2 27387 098.3315 255.2985 0033431 142.8588 266.1602 14.35749305662754
Epoch (UTC): 24 October 2014 00:04:39
Eccentricity: 0.0033431
inclination: 98.3315°
perigee height: 748 km
apogee height: 796 km
right ascension of ascending node: 255.2985°
argument of perigee: 142.8588°
revolutions per day: 14.35749305
mean anomaly at epoch: 266.1602°
orbit number at epoch: 66275

The dashed part of the orbit path shows where the satellite is in the earth's shadow,  

DLR